Flag for USA

Past Weather in Deception Pass State Park, Washington, USA — Yesterday and Last 2 Weeks

Now
52 °F

Cloudy.


Feels Like: 52 °F
Forecast: 57 / 51 °F
Wind: 3 mph from South

Location: Whidbey Island
Current Time: Oct 20, 2020 at 9:38:30 am
Latest Report: Oct 20, 2020 at 8:56 am
Visibility: 8 mi
Pressure30.25 "Hg
Humidity: 83%
Dew Point: 47 °F
Location of Deception Pass State ParkLocation

Past Weather in Deception Pass State Park — Graph

°F

Deception Pass State Park Temperature Yesterday

Maximum temperature yesterday: 57 °F (at 11:56 am)
Minimum temperature yesterday: 51 °F (at 11:56 pm)
Average temperature yesterday: 54 °F

High & Low Weather Summary for the Past Weeks

 TemperatureHumidityPressure
High65 °F (Oct 9, 5:56 pm)97% (Oct 5, 10:03 am)30.65 "Hg (Oct 5, 10:03 am)
Low46 °F (Oct 15, 7:56 am)54% (Oct 13, 1:56 pm)29.52 "Hg (Oct 10, 4:56 am)
Average55 °F81%30.08 "Hg
* Reported Oct 5 7:26 am — Oct 20 7:56 am, Deception Pass State Park. Weather by CustomWeather, © 2020

Note: Actual official high and low records may vary slightly from our data, if they occured in-between our weather recording intervals... More about our weather records

Deception Pass State Park Weather History for the Previous 24 Hours

Scroll right to see more
 ConditionsComfort  
Time TempWeatherWind HumidityBarometerVisibility
7:56 am
Tue, Oct 20
51 °FMostly cloudy.5 mph86%30.24 "Hg9 mi
6:56 am50 °FPartly cloudy.5 mph86%30.24 "Hg9 mi
6:22 am49 °FMostly cloudy.6 mph86%30.25 "Hg9 mi
5:56 am49 °FOvercast.6 mph86%30.25 "Hg9 mi
4:56 am47 °FPassing clouds.6 mph86%30.25 "Hg10 mi
3:56 am48 °FPartly cloudy.5 mph83%30.27 "Hg10 mi
2:56 am51 °FPassing clouds.5 mph83%30.26 "Hg10 mi
1:56 am52 °FPassing clouds.3 mph80%30.25 "Hg10 mi
12:56 am50 °FPartly cloudy.No wind83%30.25 "Hg10 mi
11:56 pm
Mon, Oct 19
51 °FPassing clouds.8 mph83%30.25 "Hg10 mi
10:56 pm52 °FPassing clouds.13 mph77%30.24 "Hg10 mi
9:56 pm52 °FPassing clouds.15 mph80%30.23 "Hg10 mi
8:56 pm52 °FPartly cloudy.14 mph80%30.22 "Hg10 mi
7:56 pm53 °FPartly cloudy.17 mph74%30.21 "Hg10 mi
6:56 pm53 °FPartly cloudy.20 mph74%30.19 "Hg10 mi
5:56 pm54 °FBroken clouds.20 mph72%30.19 "Hg10 mi
4:56 pm55 °FBroken clouds.22 mph69%30.19 "Hg10 mi
3:56 pm55 °FCloudy.20 mph69%30.19 "Hg10 mi
2:56 pm55 °FMostly cloudy.18 mph69%30.19 "Hg10 mi
1:56 pm55 °FBroken clouds.17 mph69%30.19 "Hg10 mi
12:56 pm56 °FMostly cloudy.20 mph70%30.19 "Hg10 mi
11:56 am57 °FMostly cloudy.15 mph69%30.19 "Hg10 mi
10:56 am56 °FMore clouds than sun.17 mph72%30.18 "Hg10 mi
9:56 am55 °FCloudy.15 mph74%30.17 "Hg9 mi
9:28 am55 °FMostly cloudy.13 mph77%30.16 "Hg9 mi
Weather by CustomWeather, © 2020

See weather overview